When you browse on this site, cookies collect data to enhance your experience and personalize the content and advertising you see.
Visit our Privacy Policy to learn more. By continuing to use the site, you agree to this use of cookies and data.
  • In Hungary
  • List of Countries
  • For 7 days
  • Water Temperature
  • Satellite Maps
  • Weather Map
  • News
  • Weather Widgets
  • user-avatar
    Login

    Hourly Weather Kalemie

    Today, 21 January, Monday

    Time Temperature Precipitation Wind Pressure Humidity
    00:00 +30°C° 0 mm 1 mps 706 mmHg 21%
    01:00 +29°C° 0 mm 1 mps 706 mmHg 21%
    02:00 +27°C° 0 mm 0 mps 706 mmHg 22%
    03:00 +26°C° 0 mm 0 mps 706 mmHg 23%
    04:00 +25°C° 0 mm 0 mps 706 mmHg 24%
    05:00 +25°C° 0 mm 0 mps 706 mmHg 25%
    06:00 +28°C° 0 mm 1 mps 707 mmHg 24%
    07:00 +29°C° 0 mm 1 mps 707 mmHg 24%
    08:00 +31°C° 0 mm 1 mps 708 mmHg 23%
    09:00 +34°C° 0 mm 1 mps 708 mmHg 20%
    10:00 +37°C° 0 mm 1 mps 709 mmHg 16%
    11:00 +42°C° 0 mm 1 mps 709 mmHg 12%
    12:00 +42°C° 0 mm 1 mps 708 mmHg 11%
    13:00 +42°C° 0 mm 2 mps 707 mmHg 10%
    14:00 +43°C° 0 mm 3 mps 706 mmHg 9%
    15:00 +42°C° 0 mm 2 mps 705 mmHg 9%
    16:00 +41°C° 0 mm 2 mps 705 mmHg 9%
    17:00 +41°C° 0 mm 2 mps 704 mmHg 9%
    18:00 +38°C° 0 mm 2 mps 704 mmHg 11%
    19:00 +35°C° 0 mm 1 mps 704 mmHg 12%
    20:00 +32°C° 0 mm 1 mps 704 mmHg 14%
    21:00 +32°C° 0 mm 1 mps 705 mmHg 15%
    22:00 +31°C° 0 mm 1 mps 705 mmHg 16%
    23:00 +30°C° 0 mm 1 mps 705 mmHg 16%

    Tomorrow, 22 January, Tuesday

    Time Temperature Precipitation Wind Pressure Humidity
    00:00 +29°C° 0 mm 1 mps 705 mmHg 17%
    01:00 +29°C° 0 mm 1 mps 705 mmHg 18%
    02:00 +28°C° 0 mm 1 mps 704 mmHg 19%
    03:00 +27°C° 0 mm 1 mps 704 mmHg 19%
    04:00 +26°C° 0 mm 1 mps 705 mmHg 20%
    05:00 +24°C° 0 mm 0 mps 705 mmHg 21%
    06:00 +27°C° 0 mm 1 mps 705 mmHg 19%
    07:00 +29°C° 0 mm 2 mps 706 mmHg 18%
    08:00 +30°C° 0 mm 2 mps 707 mmHg 17%
    09:00 +34°C° 0 mm 2 mps 707 mmHg 14%
    10:00 +37°C° 0 mm 3 mps 707 mmHg 11%
    11:00 +40°C° 0 mm 3 mps 707 mmHg 8%
    12:00 +42°C° 0 mm 3 mps 706 mmHg 8%
    13:00 +43°C° 0 mm 3 mps 705 mmHg 8%
    14:00 +44°C° 0 mm 3 mps 704 mmHg 8%
    15:00 +43°C° 0 mm 3 mps 704 mmHg 8%
    16:00 +41°C° 0 mm 2 mps 703 mmHg 8%
    17:00 +41°C° 0 mm 2 mps 703 mmHg 8%
    18:00 +38°C° 0 mm 2 mps 703 mmHg 10%
    19:00 +35°C° 0 mm 1 mps 704 mmHg 11%
    20:00 +32°C° 0 mm 1 mps 704 mmHg 12%
    21:00 +31°C° 0 mm 1 mps 704 mmHg 13%
    22:00 +31°C° 0 mm 1 mps 704 mmHg 13%
    23:00 +30°C° 0 mm 1 mps 704 mmHg 14%

    Day after tomorrow, 23 January, Wednesday

    Time Temperature Precipitation Wind Pressure Humidity
    00:00 +29°C° 0 mm 1 mps 704 mmHg 14%
    01:00 +28°C° 0 mm 1 mps 703 mmHg 15%
    02:00 +28°C° 0 mm 1 mps 703 mmHg 15%
    03:00 +27°C° 0 mm 1 mps 703 mmHg 15%
    04:00 +27°C° 0 mm 1 mps 703 mmHg 16%
    05:00 +26°C° 0 mm 1 mps 703 mmHg 16%
    06:00 +27°C° 0 mm 1 mps 704 mmHg 16%
    07:00 +29°C° 0 mm 1 mps 705 mmHg 15%
    08:00 +30°C° 0 mm 1 mps 705 mmHg 14%
    09:00 +32°C° 0 mm 2 mps 706 mmHg 13%
    10:00 +36°C° 0 mm 2 mps 706 mmHg 11%
    11:00 +39°C° 0 mm 3 mps 707 mmHg 9%
    12:00 +40°C° 0 mm 2 mps 706 mmHg 8%
    13:00 +41°C° 0 mm 2 mps 705 mmHg 8%
    14:00 +42°C° 0 mm 2 mps 704 mmHg 7%
    15:00 +42°C° 0 mm 2 mps 704 mmHg 8%
    16:00 +41°C° 0 mm 2 mps 703 mmHg 8%
    17:00 +40°C° 0 mm 1 mps 703 mmHg 8%
    18:00 +37°C° 0 mm 1 mps 703 mmHg 10%
    19:00 +34°C° 0 mm 1 mps 704 mmHg 11%
    20:00 +32°C° 0 mm 1 mps 704 mmHg 13%
    21:00 +31°C° 0 mm 1 mps 704 mmHg 13%
    22:00 +31°C° 0 mm 1 mps 704 mmHg 14%
    23:00 +30°C° 0 mm 1 mps 704 mmHg 14%

    24 January, Thursday

    Time Temperature Precipitation Wind Pressure Humidity
    00:00 +30°C° 0 mm 1 mps 704 mmHg 14%
    01:00 +30°C° 0 mm 1 mps 704 mmHg 14%
    02:00 +29°C° 0 mm 1 mps 703 mmHg 15%
    03:00 +29°C° 0 mm 1 mps 703 mmHg 15%
    04:00 +29°C° 0 mm 1 mps 704 mmHg 15%
    05:00 +29°C° 0 mm 1 mps 704 mmHg 15%
    06:00 +30°C° 0 mm 1 mps 705 mmHg 15%
    07:00 +31°C° 0 mm 1 mps 706 mmHg 14%
    08:00 +32°C° 0 mm 2 mps 707 mmHg 14%
    09:00 +35°C° 0 mm 1 mps 707 mmHg 13%
    10:00 +39°C° 0 mm 1 mps 707 mmHg 11%
    11:00 +42°C° 0 mm 1 mps 708 mmHg 10%
    12:00 +42°C° 0 mm 1 mps 707 mmHg 10%
    13:00 +42°C° 0 mm 2 mps 706 mmHg 10%
    14:00 +42°C° 0 mm 2 mps 705 mmHg 10%
    15:00 +41°C° 0 mm 2 mps 704 mmHg 10%
    16:00 +40°C° 0 mm 2 mps 704 mmHg 10%
    17:00 +40°C° 0 mm 2 mps 704 mmHg 10%
    18:00 +36°C° 0 mm 1 mps 704 mmHg 12%
    19:00 +34°C° 0 mm 1 mps 704 mmHg 14%
    20:00 +32°C° 0 mm 1 mps 704 mmHg 16%
    21:00 +31°C° 0 mm 1 mps 704 mmHg 17%
    22:00 +30°C° 0 mm 1 mps 704 mmHg 18%
    23:00 +30°C° 0 mm 1 mps 705 mmHg 19%

    25 January, Friday

    Time Temperature Precipitation Wind Pressure Humidity
    00:00 +29°C° 0 mm 1 mps 704 mmHg 19%
    01:00 +29°C° 0 mm 1 mps 704 mmHg 20%
    02:00 +27°C° 0 mm 0 mps 703 mmHg 20%
    03:00 +28°C° 0 mm 1 mps 703 mmHg 21%
    04:00 +28°C° 0 mm 1 mps 704 mmHg 22%
    05:00 +27°C° 0 mm 1 mps 704 mmHg 23%
    06:00 +29°C° 0 mm 1 mps 704 mmHg 22%
    07:00 +31°C° 0 mm 1 mps 705 mmHg 21%
    08:00 +30°C° 0 mm 0 mps 706 mmHg 20%
    09:00 +35°C° 0 mm 1 mps 706 mmHg 18%
    10:00 +39°C° 0 mm 2 mps 706 mmHg 15%
    11:00 +43°C° 0 mm 3 mps 707 mmHg 12%
    12:00 +44°C° 0 mm 3 mps 706 mmHg 12%
    13:00 +44°C° 0 mm 3 mps 705 mmHg 11%
    14:00 +45°C° 0 mm 3 mps 704 mmHg 10%
    15:00 +44°C° 0 mm 3 mps 704 mmHg 11%
    16:00 +43°C° 0 mm 3 mps 703 mmHg 11%
    17:00 +43°C° 0 mm 3 mps 703 mmHg 11%
    18:00 +40°C° 0 mm 3 mps 703 mmHg 13%
    19:00 +37°C° 0 mm 2 mps 704 mmHg 15%
    20:00 +34°C° 0 mm 1 mps 704 mmHg 17%
    21:00 +33°C° 0 mm 1 mps 704 mmHg 18%
    22:00 +32°C° 0 mm 1 mps 704 mmHg 19%
    23:00 +32°C° 0 mm 1 mps 704 mmHg 20%

    26 January, Saturday

    Time Temperature Precipitation Wind Pressure Humidity
    00:00 +31°C° 0 mm 1 mps 704 mmHg 21%
    01:00 +30°C° 0 mm 2 mps 703 mmHg 22%
    02:00 +30°C° 0 mm 2 mps 703 mmHg 23%
    03:00 +29°C° 0 mm 2 mps 703 mmHg 24%
    04:00 +29°C° 0 mm 2 mps 703 mmHg 25%
    05:00 +28°C° 0 mm 1 mps 704 mmHg 26%
    06:00 +30°C° 0 mm 1 mps 704 mmHg 25%
    07:00 +31°C° 0 mm 1 mps 705 mmHg 23%
    08:00 +32°C° 0 mm 2 mps 705 mmHg 22%
    09:00 +35°C° 0 mm 2 mps 705 mmHg 20%
    10:00 +37°C° 0 mm 2 mps 706 mmHg 18%
    11:00 +39°C° 0 mm 2 mps 706 mmHg 16%
    12:00 +40°C° 0 mm 2 mps 705 mmHg 15%
    13:00 +42°C° 0 mm 3 mps 704 mmHg 14%
    14:00 +43°C° 0 mm 3 mps 704 mmHg 12%
    15:00 +41°C° 0 mm 2 mps 703 mmHg 13%
    16:00 +41°C° 0 mm 2 mps 703 mmHg 13%
    17:00 +40°C° 0 mm 1 mps 703 mmHg 14%
    18:00 +37°C° 0 mm 1 mps 703 mmHg 16%
    19:00 +34°C° 0 mm 1 mps 703 mmHg 18%
    20:00 +30°C° 0 mm 0 mps 703 mmHg 20%
    21:00 +29°C° 0 mm 0 mps 703 mmHg 21%
    22:00 +29°C° 0 mm 0 mps 703 mmHg 22%
    23:00 +28°C° 0 mm 0 mps 704 mmHg 22%
    Show more